Weather reports worldwide

Advertisment
Groningen Eelde, Netherlands (6280): temperature & dewpoint: 22.01.2020 07:00:00 - 28.01.2020 07:00:00 (CET)Groningen Eelde, Netherlands (6280): temperature 5cm: 22.01.2020 07:00:00 - 28.01.2020 07:00:00 (CET)Groningen Eelde, Netherlands (6280): wind speed & gusts: 22.01.2020 07:00:00 - 28.01.2020 07:00:00 (CET)Groningen Eelde, Netherlands (6280): wind direction: 22.01.2020 07:00:00 - 28.01.2020 07:00:00 (CET)Groningen Eelde, Netherlands (6280): reduced air pressure: 22.01.2020 07:00:00 - 28.01.2020 07:00:00 (CET)Groningen Eelde, Netherlands (6280): visibility: 22.01.2020 07:00:00 - 28.01.2020 07:00:00 (CET)Groningen Eelde, Netherlands (6280): precipitation: 22.01.2020 07:00:00 - 28.01.2020 07:00:00 (CET)
Date & Time tt [°C] td [°C] tt 5cm [°C] ff [km/h] ff [kn] fx [km/h] fx [kn] dd ppp [hPa] vv [km] rr [mm]
28.01.2020 07:00:00 5,2 3,7 4,7 29 16 43 23 SW 987,6 10 0,0
28.01.2020 06:00:00 6,1 4,7 5,5 28 15 40 21 SSW 988,1 10 0,2
28.01.2020 05:00:00 6,1 5,3 5,8 22 12 40 21 SSW 988,7 6 0,5
28.01.2020 04:00:00 6,1 4,7 5,7 26 14 43 23 SW 989,0 10 0,0
28.01.2020 03:00:00 5,8 4,0 5,0 26 14 54 29 WSW 989,3 10 0,1
28.01.2020 02:00:00 7,1 6,0 6,3 18 10 40 21 SSE 988,9 10 1,2
28.01.2020 01:00:00 6,6 5,3 6,1 26 14 40 21 S 990,6 10 2,5
28.01.2020 00:00:00 6,8 5,9 6,6 16 9 29 16 SSE 992,5 10 0,5
27.01.2020 23:00:00 7,1 5,8 6,6 18 10 29 16 S 994,4 10 0,0
27.01.2020 22:00:00 7,3 6,2 6,9 15 8 29 16 S 996,1 10 0,0
27.01.2020 21:00:00 7,3 6,3 6,6 15 8 22 12 S 997,3 10 0,0
27.01.2020 20:00:00 7,8 6,6 7,4 13 7 22 12 S 998,6 10 0,0
27.01.2020 19:00:00 7,8 6,7 7,4 13 7 22 12 S 999,7 10 0,0
27.01.2020 18:00:00 8,2 6,6 7,6 13 7 22 12 S 1000,6 10 0,0
27.01.2020 17:00:00 8,5 6,7 7,9 15 8 25 14 SSW 1001,3 10 0,0
27.01.2020 16:00:00 8,7 6,9 8,3 16 9 29 16 SSW 1001,8 10 0,0
27.01.2020 15:00:00 9,0 6,9 8,7 15 8 25 14 S 1002,0 10 0,0
27.01.2020 14:00:00 9,1 7,2 9,0 21 11 29 16 SSW 1003,2 10 0,0
27.01.2020 13:00:00 9,2 7,1 9,1 21 11 32 18 SSW 1003,7 10 0,0
27.01.2020 12:00:00 8,9 7,3 8,8 22 12 32 18 SSW 1004,4 10 0,0
27.01.2020 11:00:00 8,5 7,5 8,2 21 11 29 16 SSW 1004,9 10 0,1
27.01.2020 10:00:00 8,2 7,4 7,9 16 9 25 14 SSW 1005,0 9 0,0
27.01.2020 09:00:00 7,9 7,1 7,6 16 9 25 14 SSW 1005,3 9 0,0
27.01.2020 08:00:00 7,6 6,9 7,3 21 11 29 16 SSW 1005,4 10 0,0
27.01.2020 07:00:00 7,5 6,7 7,1 22 12 40 21 SSW 1005,5 10 0,0
27.01.2020 06:00:00 7,2 6,4 6,9 26 14 40 21 SSW 1005,8 9 0,0
27.01.2020 05:00:00 7,1 6,2 6,7 26 14 36 19 SSW 1006,1 9 0,5
27.01.2020 04:00:00 6,9 6,1 6,5 24 13 36 19 S 1006,5 5 0,7
27.01.2020 03:00:00 6,8 5,8 6,5 22 12 36 19 S 1007,2 7 0,6
27.01.2020 02:00:00 6,8 5,8 6,4 21 11 32 18 S 1008,1 7 0,7
27.01.2020 01:00:00 7,1 5,2 6,5 22 12 29 16 S 1008,7 10 0,0
27.01.2020 00:00:00 6,9 5,1 6,2 18 10 29 16 S 1009,4 10 0,0
26.01.2020 23:00:00 6,3 4,8 5,2 13 7 25 14 S 1009,9 9 0,0
26.01.2020 22:00:00 6,4 4,6 5,4 16 9 25 14 S 1010,6 10 0,0
26.01.2020 21:00:00 6,4 4,7 5,7 15 8 25 14 S 1011,1 8 0,0
26.01.2020 20:00:00 5,2 4,0 3,9 13 7 22 12 S 1011,5 7 0,0
26.01.2020 19:00:00 5,2 4,2 4,3 13 7 22 12 S 1011,8 7 0,0
26.01.2020 18:00:00 4,7 3,7 3,4 9 5 14 8 SSE 1012,1 7 0,0
26.01.2020 17:00:00 5,0 3,7 3,7 9 5 14 8 S 1012,6 8 0,0
26.01.2020 16:00:00 6,1 4,2 5,6 11 6 22 12 S 1012,6 8 0,0
26.01.2020 15:00:00 6,7 4,5 7,0 15 8 25 14 S 1013,0 8 0,0
26.01.2020 14:00:00 6,4 4,3 6,8 16 9 25 14 S 1013,5 7 0,0
26.01.2020 13:00:00 5,1 3,8 5,3 13 7 22 12 SSE 1013,9 5 0,0
26.01.2020 12:00:00 3,6 2,7 3,8 13 7 22 12 S 1015,0 4,0 0,0
26.01.2020 11:00:00 2,5 2,0 2,5 13 7 25 14 S 1015,7 3,6 0,0
26.01.2020 10:00:00 1,5 1,3 1,6 13 7 25 14 SSE 1015,6 1,6 0,0
26.01.2020 09:00:00 0,9 0,7 1,0 15 8 25 14 SSE 1015,9 0,6 0,0
26.01.2020 08:00:00 0,9 0,7 1,0 15 8 22 12 SSE 1016,0 0,9 0,0
26.01.2020 07:00:00 0,9 0,7 1,0 16 9 25 14 SSE 1016,2 0,7 0,0
26.01.2020 06:00:00 1,0 0,7 1,0 15 8 22 12 SSE 1016,6 1,7 0,0
26.01.2020 05:00:00 0,8 0,4 0,7 13 7 25 14 SSE 1016,9 2,3 0,0
26.01.2020 04:00:00 0,3 0,1 0,1 15 8 22 12 S 1017,5 1,9 0,0
26.01.2020 03:00:00 1,2 0,4 0,5 11 6 18 10 S 1017,8 2,9 0,0
26.01.2020 02:00:00 1,5 0,6 1,3 13 7 22 12 S 1018,1 3,6 0,0
26.01.2020 01:00:00 1,6 0,6 1,5 13 7 25 14 S 1018,5 4,1 0,0
26.01.2020 00:00:00 1,7 0,6 1,6 15 8 25 14 S 1019,1 4,2 0,0
25.01.2020 23:00:00 1,8 0,7 1,7 11 6 18 10 S 1019,4 4,5 0,0
25.01.2020 22:00:00 1,8 0,6 1,7 13 7 18 10 S 1019,8 4,7 0,0
25.01.2020 21:00:00 1,9 0,6 1,8 11 6 22 12 SSW 1020,0 5 0,0
25.01.2020 20:00:00 2,2 0,8 2,0 18 10 25 14 SSW 1020,0 4,7 0,0
25.01.2020 19:00:00 2,4 1,1 2,2 15 8 22 12 S 1019,8 5 0,0
25.01.2020 18:00:00 2,5 1,2 2,3 11 6 22 12 S 1019,8 6 0,0
25.01.2020 17:00:00 2,6 1,3 2,5 15 8 22 12 S 1019,6 7 0,0
25.01.2020 16:00:00 2,8 1,4 2,8 15 8 25 14 SSW 1020,0 7 0,0
25.01.2020 15:00:00 2,9 1,6 2,9 18 10 25 14 SSW 1020,3 6 0,0
25.01.2020 14:00:00 2,8 1,6 2,7 16 9 22 12 SSW 1020,8 4,4 0,0
25.01.2020 13:00:00 3,1 2,2 3,4 13 7 25 14 SSW 1021,1 3,8 0,0
25.01.2020 12:00:00 3,0 2,2 3,1 16 9 25 14 SSW 1021,5 3,5 0,0
25.01.2020 11:00:00 2,9 2,3 3,0 16 9 29 16 SSW 1021,4 3,2 0,0
25.01.2020 10:00:00 2,8 2,3 2,8 18 10 25 14 SSW 1020,8 2,8 0,0
25.01.2020 09:00:00 2,7 2,1 2,6 16 9 25 14 SSW 1020,9 3,0 0,0
25.01.2020 08:00:00 2,6 2,2 2,5 18 10 25 14 SSW 1020,7 2,8 0,0
25.01.2020 07:00:00 2,6 2,2 2,5 15 8 22 12 SSW 1020,6 2,6 0,0
25.01.2020 06:00:00 2,5 2,2 2,5 13 7 22 12 SSW 1020,3 2,4 0,0
25.01.2020 05:00:00 2,6 2,2 2,6 13 7 25 14 SSW 1020,4 2,5 0,0
25.01.2020 04:00:00 2,7 2,3 2,7 16 9 22 12 SSW 1020,7 2,0 0,2
25.01.2020 03:00:00 2,8 2,6 2,8 15 8 22 12 SSW 1021,2 2,3 0,1
25.01.2020 02:00:00 2,9 2,5 2,8 13 7 18 10 SSW 1021,2 2,2 0,1
25.01.2020 01:00:00 2,8 2,5 2,8 16 9 22 12 SW 1021,3 2,4 0,1
25.01.2020 00:00:00 2,8 2,4 2,8 13 7 22 12 SSW 1021,4 2,8 0,1
24.01.2020 23:00:00 2,8 2,4 2,8 16 9 25 14 SSW 1021,6 2,7 0,0
24.01.2020 22:00:00 2,9 2,5 2,9 16 9 25 14 SSW 1021,8 3,1 0,0
24.01.2020 21:00:00 2,9 2,4 2,8 16 9 22 12 SSW 1021,8 3,2 0,0
24.01.2020 20:00:00 2,9 2,4 2,8 15 8 25 14 SSW 1021,7 3,4 0,0
24.01.2020 19:00:00 2,9 2,1 2,8 13 7 22 12 SSW 1021,8 4,5 0,0
24.01.2020 18:00:00 3,3 2,4 3,2 15 8 22 12 SSW 1021,7 4,8 0,0
24.01.2020 17:00:00 3,5 2,3 3,3 13 7 18 10 SW 1021,5 3,8 0,0
24.01.2020 16:00:00 3,5 2,3 3,4 11 6 22 12 SW 1021,7 3,5 0,0
24.01.2020 15:00:00 3,3 2,1 3,3 16 9 25 14 SW 1021,3 3,0 0,0
24.01.2020 14:00:00 3,0 1,9 3,2 16 9 25 14 SSW 1021,8 3,1 0,0
24.01.2020 13:00:00 2,7 1,7 2,8 16 9 25 14 SSW 1022,5 3,9 0,0
24.01.2020 12:00:00 2,1 1,2 2,4 16 9 25 14 SSW 1023,1 3,2 0,0
24.01.2020 11:00:00 2,0 1,2 2,2 18 10 25 14 S 1023,0 1,8 0,0
24.01.2020 10:00:00 2,0 1,4 2,0 11 6 22 12 SSW 1023,0 1,8 0,0
24.01.2020 09:00:00 1,8 1,4 1,8 9 5 18 10 WSW 1023,4 1,5 0,0
24.01.2020 08:00:00 1,8 1,5 1,8 15 8 22 12 SSW 1022,8 2,0 0,0
24.01.2020 07:00:00 2,0 1,8 1,9 13 7 18 10 SW 1023,2 1,6 0,0
24.01.2020 06:00:00 1,7 1,5 1,7 13 7 22 12 SSW 1022,8 1,3 0,0
24.01.2020 05:00:00 1,6 1,4 1,7 11 6 18 10 SW 1023,6 1,2 0,0
24.01.2020 04:00:00 1,6 1,4 1,8 11 6 18 10 SSW 1024,1 1,4 0,0
24.01.2020 03:00:00 1,8 1,6 2,0 13 7 22 12 S 1024,6 1,4 0,0
24.01.2020 02:00:00 2,1 1,9 2,2 9 5 14 8 S 1025,1 1,9 0,0
24.01.2020 01:00:00 2,1 1,9 2,2 8 4 11 6 S 1026,1 1,7 0,0
24.01.2020 00:00:00 2,1 1,6 2,1 9 5 18 10 SW 1026,6 3,2 0,0
23.01.2020 23:00:00 2,3 1,9 2,3 8 4 14 8 SW 1027,2 2,2 0,0
23.01.2020 22:00:00 2,2 2,0 2,4 8 4 11 6 SSW 1027,5 1,3 0,0
23.01.2020 21:00:00 2,4 2,1 2,5 8 4 14 8 SW 1027,9 0,9 0,0
23.01.2020 20:00:00 2,7 2,5 2,9 11 6 14 8 S 1028,2 0,9 0,0
23.01.2020 19:00:00 3,2 3,0 3,3 8 4 11 6 S 1028,7 1,6 0,0
23.01.2020 18:00:00 3,6 3,1 3,7 5 3 11 6 S 1029,0 6 0,0
23.01.2020 17:00:00 4,0 3,3 4,0 5 3 11 6 S 1029,5 10 0,0
23.01.2020 16:00:00 4,6 3,6 4,8 9 5 14 8 SSW 1029,6 10 0,0
23.01.2020 15:00:00 4,7 3,1 4,8 8 4 14 8 SW 1030,6 10 0,0
23.01.2020 14:00:00 4,3 3,8 5,2 5 3 11 6 S 1031,3 10 0,0
23.01.2020 13:00:00 3,3 3,1 4,0 5 3 7 4 SW 1032,2 4,3 0,0
23.01.2020 12:00:00 2,1 1,9 3,1 5 3 7 4 SSW 1033,0 0,2 0,0
23.01.2020 11:00:00 1,6 1,4 2,5 4 2 11 6 SSE 1033,6 0,2 0,0
23.01.2020 10:00:00 1,0 0,8 0,7 4 2 7 4 - 1034,0 5 0,0
23.01.2020 09:00:00 0,0 -0,2 -0,2 4 2 7 4 SE 1034,2 2,5 0,0
23.01.2020 08:00:00 -0,6 -0,8 -1,3 2 1 4 2 S 1034,1 0,5 0,0
23.01.2020 07:00:00 0,1 -0,1 -0,2 4 2 7 4 S 1034,1 0,2 0,0
23.01.2020 06:00:00 -0,3 -0,6 -0,8 2 1 7 4 SSE 1034,4 0,5 0,0
23.01.2020 05:00:00 0,0 -0,2 -0,2 2 1 7 4 - 1035,0 0,2 0,0
23.01.2020 04:00:00 0,0 -0,3 -0,3 4 2 7 4 WSW 1035,4 0,3 0,0
23.01.2020 03:00:00 -0,1 -0,4 -0,4 2 1 4 2 WSW 1035,7 0,2 0,0
23.01.2020 02:00:00 -0,3 -0,5 -0,3 2 1 4 2 WSW 1035,9 0,2 0,0
23.01.2020 01:00:00 0,1 -0,1 -0,2 5 3 7 4 WSW 1036,3 0,3 0,0
23.01.2020 00:00:00 -0,3 -0,5 -0,5 2 1 7 4 WSW 1036,5 0,4 0,0
22.01.2020 23:00:00 -0,6 -0,8 -1,3 2 1 7 4 WSW 1036,3 0,3 0,0
22.01.2020 22:00:00 -0,7 -0,9 -1,9 4 2 7 4 WSW 1036,3 0,5 0,0
22.01.2020 21:00:00 0,3 0,1 -1,9 2 1 7 4 WSW 1036,3 0,4 0,0
22.01.2020 20:00:00 0,4 0,2 -1,4 2 1 7 4 W 1036,2 0,7 0,0
22.01.2020 19:00:00 3,1 2,9 -0,6 4 2 7 4 N 1036,0 0,5 0,0
22.01.2020 18:00:00 4,2 3,8 1,9 5 3 7 4 WNW 1035,6 10 0,0
22.01.2020 17:00:00 6,5 5,3 6,0 9 5 14 8 NNW 1035,3 10 0,0
22.01.2020 16:00:00 7,3 5,1 7,0 8 4 22 12 N 1035,2 10 0,0
22.01.2020 15:00:00 7,4 5,2 7,4 13 7 25 14 NNW 1035,3 10 0,0
22.01.2020 14:00:00 7,7 5,6 7,7 13 7 22 12 NW 1035,5 10 0,0
22.01.2020 13:00:00 7,8 5,8 7,9 13 7 22 12 NW 1035,5 10 0,0
22.01.2020 12:00:00 8,0 6,2 7,8 13 7 25 14 NW 1035,5 10 0,0
22.01.2020 11:00:00 7,4 6,1 7,3 15 8 25 14 NNW 1035,8 10 0,0
22.01.2020 10:00:00 7,1 6,5 7,0 8 4 14 8 WNW 1035,4 3,6 0,0
22.01.2020 09:00:00 6,5 6,4 6,3 11 6 18 10 W 1035,3 1,8 0,1
22.01.2020 08:00:00 6,0 5,8 5,8 11 6 18 10 W 1034,9 2,1 0,1
22.01.2020 07:00:00 5,6 5,4 5,5 11 6 18 10 W 1034,8 1,6 0,1

tt = temperature
td = dewpoint
tt 5cm = temperature 5cm
ff = wind speed
fx = gusts
dd = wind direction
ppp = reduced air pressure
vv = visibility
rr = precipitation

Next stations